Weather History for Big Bear City, CA

Change the Weather History Date:

Friday, February 8, 2013

  Actual Average (KBUO) Record (KBUO)
Temperature  
Mean Temperature 24 °F -  
Max Temperature 28 °F 56 °F 68 °F (2000)
Min Temperature 19 °F 40 °F 32 °F (2001)
Degree Days  
Heating Degree Days 42    
Moisture  
Dew Point 18 °F    
Average Humidity 82    
Maximum Humidity 93    
Minimum Humidity 74    
Precipitation  
Precipitation 0.16 in - - ()
Sea Level Pressure  
Sea Level Pressure 29.76 in    
Wind  
Wind Speed 10 mph (WSW)    
Max Wind Speed 16 mph    
Max Gust Speed 30 mph    
Visibility 4 miles    
Events Snow    
Averages and records for this station are not official NWS values.
T = Trace of Precipitation, MM = Missing Value Source: NWS Daily Summary

Daily Weather History Graph

Daily Weather History Graph

Search for Another Location

Airport:

Trip Planner

Search our weather history database for the weather conditions in past years. The results will help you decide how hot, cold, wet, or windy it might be!

Date:

Astronomy

Feb. 08, 2013 Rise Set
Actual Time 6:38 AM PST 5:24 PM PST
Civil Twilight 6:12 AM PST 5:50 PM PST
Nautical Twilight 5:43 AM PST 6:20 PM PST
Astronomical Twilight 5:13 AM PST 6:49 PM PST
Moon 5:09 AM PST (2/8) 4:04 PM PST (2/8)
Length of Visible Light 11h 37m
Length of Day
10h 45m
Waning Crescent, 3% of the Moon is Illuminated
Feb 8
Waning Crescent
Feb 9
New
Feb 17
First Quarter
Feb 25
Full
Mar 4
Last Quarter

Hourly Weather History & Observations

Time (PST) Temp. Windchill Dew Point Humidity Pressure Visibility Wind Dir Wind Speed Gust Speed Precip Events Conditions
12:15 AM 28.4 °F 17.5 °F 21.2 °F 74% 29.85 in 10.0 mi WSW 13.8 mph 20.7 mph N/A   Scattered Clouds
12:35 AM 28.4 °F 17.5 °F 21.2 °F 74% 29.85 in 10.0 mi WSW 13.8 mph 23.0 mph N/A   Mostly Cloudy
12:55 AM 28.4 °F 18.5 °F 21.2 °F 74% 29.85 in 7.0 mi West 11.5 mph 16.1 mph N/A   Overcast
1:35 AM 26.6 °F 16.2 °F 21.2 °F 80% 29.84 in 5.0 mi WSW 11.5 mph 18.4 mph N/A Snow Light Snow
1:55 AM 26.6 °F 16.8 °F 19.4 °F 74% 29.84 in 7.0 mi WSW 10.4 mph 19.6 mph N/A   Overcast
2:15 AM 26.6 °F 16.8 °F 21.2 °F 80% 29.82 in 10.0 mi WSW 10.4 mph 20.7 mph N/A   Overcast
2:35 AM 26.6 °F 16.2 °F 21.2 °F 80% 29.81 in 5.0 mi WSW 11.5 mph 21.9 mph N/A   Haze
2:55 AM 26.6 °F 14.3 °F 21.2 °F 80% 29.81 in 1.5 mi SW 16.1 mph 29.9 mph N/A Snow Light Snow
3:15 AM 26.6 °F 16.2 °F 19.4 °F 74% 29.79 in 5.0 mi SW 11.5 mph 20.7 mph N/A Snow Light Snow
3:35 AM 24.8 °F 14.6 °F 19.4 °F 80% 29.78 in 2.5 mi SSW 10.4 mph 16.1 mph N/A Snow Light Snow
4:15 AM 24.8 °F 16.9 °F 19.4 °F 80% 29.78 in 2.0 mi WSW 6.9 mph 24.2 mph N/A Snow Light Snow
4:35 AM 24.8 °F 14.6 °F 17.6 °F 74% 29.78 in 4.0 mi WSW 10.4 mph 23.0 mph N/A Snow Light Snow
4:55 AM 23.0 °F 12.4 °F 17.6 °F 80% 29.78 in 5.0 mi WSW 10.4 mph 25.3 mph N/A   Haze
5:15 AM 23.0 °F 11.1 °F 17.6 °F 80% 29.79 in 1.8 mi SW 12.7 mph 24.2 mph N/A Snow Light Snow
5:35 AM 23.0 °F 14.7 °F 15.8 °F 74% 29.79 in 10.0 mi West 6.9 mph 20.7 mph N/A   Overcast
5:55 AM 21.2 °F 11.7 °F 15.8 °F 80% 29.79 in 10.0 mi WSW 8.1 mph - N/A   Overcast
6:15 AM 21.2 °F 10.9 °F 14.0 °F 74% 29.79 in 10.0 mi WSW 9.2 mph 21.9 mph N/A   Overcast
6:35 AM 21.2 °F 10.9 °F 17.6 °F 86% 29.78 in 1.0 mi West 9.2 mph - N/A Snow Snow
6:55 AM 21.2 °F 11.7 °F 17.6 °F 86% 29.80 in 1.8 mi WSW 8.1 mph 18.4 mph N/A Snow Light Snow
7:15 AM 21.2 °F 13.6 °F 15.8 °F 80% 29.79 in 0.8 mi West 5.8 mph - N/A Snow Snow
7:35 AM 21.2 °F 9.5 °F 17.6 °F 86% 29.79 in 0.2 mi West 11.5 mph 16.1 mph N/A Snow Heavy Snow
7:55 AM 21.2 °F 11.7 °F 17.6 °F 86% 29.79 in 0.5 mi WSW 8.1 mph 18.4 mph 0.01 in Snow Snow
8:15 AM 23.0 °F 11.7 °F 19.4 °F 86% 29.79 in 0.2 mi SW 11.5 mph 19.6 mph N/A Snow Heavy Snow
8:35 AM 23.0 °F 11.7 °F 19.4 °F 86% 29.79 in 0.2 mi SW 11.5 mph 21.9 mph 0.01 in Snow Snow
8:55 AM 23.0 °F 14.7 °F 19.4 °F 86% 29.79 in 0.2 mi SW 6.9 mph - 0.02 in Snow Heavy Snow
9:15 AM 23.0 °F 10.6 °F 19.4 °F 86% 29.79 in 0.5 mi West 13.8 mph 21.9 mph 0.01 in Snow Light Snow
9:35 AM 23.0 °F 10.6 °F 17.6 °F 80% 29.79 in 3.0 mi WSW 13.8 mph 21.9 mph 0.01 in Snow Light Snow
9:55 AM 23.0 °F 13.1 °F 17.6 °F 80% 29.79 in 1.2 mi SW 9.2 mph 24.2 mph 0.01 in Snow Light Snow
10:15 AM 23.0 °F 10.6 °F 17.6 °F 80% 29.79 in 1.5 mi WSW 13.8 mph 21.9 mph N/A Snow Light Snow
10:35 AM 24.8 °F 17.9 °F 19.4 °F 80% 29.79 in 1.0 mi WSW 5.8 mph 17.3 mph N/A Snow Light Snow
10:55 AM 23.0 °F 14.7 °F 19.4 °F 86% 29.79 in 0.5 mi SW 6.9 mph - N/A Snow Light Snow
11:15 AM 23.0 °F 13.1 °F 19.4 °F 86% 29.78 in 0.5 mi WSW 9.2 mph - N/A Snow Snow
11:35 AM 23.0 °F 15.8 °F 19.4 °F 86% 29.78 in 0.2 mi WSW 5.8 mph - 0.01 in Snow Snow
11:55 AM 23.0 °F 13.1 °F 19.4 °F 86% 29.77 in 0.2 mi WSW 9.2 mph 16.1 mph 0.02 in Snow Snow
12:15 PM 23.0 °F 17.0 °F 19.4 °F 86% 29.77 in 0.2 mi WSW 4.6 mph - 0.01 in Snow Snow
12:35 PM 23.0 °F 15.8 °F 19.4 °F 86% 29.75 in 0.2 mi WSW 5.8 mph - 0.03 in Snow Snow
12:55 PM 23.0 °F 15.8 °F 19.4 °F 86% 29.75 in 0.2 mi WSW 5.8 mph - 0.04 in Snow Snow
1:15 PM 23.0 °F 14.7 °F 17.6 °F 80% 29.74 in 1.8 mi WSW 6.9 mph - N/A Snow Light Snow
1:35 PM 23.0 °F 17.0 °F 17.6 °F 80% 29.74 in 0.5 mi West 4.6 mph - N/A Snow Snow
1:55 PM 23.0 °F 17.0 °F 17.6 °F 80% 29.73 in 0.8 mi WSW 4.6 mph - N/A Snow Light Snow
2:15 PM 23.0 °F - 17.6 °F 80% 29.72 in 1.0 mi Calm Calm - N/A Snow Light Snow
2:35 PM 23.0 °F 17.0 °F 17.6 °F 80% 29.72 in 0.8 mi West 4.6 mph - N/A Snow Light Snow
2:55 PM 23.0 °F 18.4 °F 19.4 °F 86% 29.72 in 0.5 mi WSW 3.5 mph - N/A Snow Snow
3:15 PM 23.0 °F 13.9 °F 19.4 °F 86% 29.72 in 0.2 mi West 8.1 mph - 0.01 in Snow Snow
3:35 PM 23.0 °F 17.0 °F 19.4 °F 86% 29.71 in 1.0 mi WSW 4.6 mph - 0.01 in Snow Light Snow
3:55 PM 23.0 °F 13.9 °F 17.6 °F 80% 29.71 in 2.5 mi SW 8.1 mph - 0.01 in Snow Light Snow
4:15 PM 23.0 °F 15.8 °F 17.6 °F 80% 29.70 in 0.8 mi WSW 5.8 mph - N/A Snow Light Snow
4:35 PM 21.2 °F 12.6 °F 19.4 °F 93% 29.70 in 0.2 mi WSW 6.9 mph - 0.01 in Snow Snow
4:55 PM 21.2 °F 14.9 °F 17.6 °F 86% 29.70 in 0.2 mi SW 4.6 mph - 0.02 in Snow Heavy Snow
5:15 PM 21.2 °F 11.7 °F 17.6 °F 86% 29.70 in 0.5 mi WSW 8.1 mph - 0.01 in Snow Light Snow
5:35 PM 21.2 °F 11.7 °F 17.6 °F 86% 29.70 in 0.5 mi West 8.1 mph - 0.02 in Snow Snow
5:55 PM 21.2 °F 10.1 °F 17.6 °F 86% 29.71 in 1.0 mi WSW 10.4 mph 16.1 mph 0.03 in Snow Light Snow
6:15 PM 21.2 °F 8.9 °F 15.8 °F 80% 29.71 in 2.5 mi WSW 12.7 mph 18.4 mph N/A Snow Light Snow
6:35 PM 19.4 °F 8.6 °F 15.8 °F 86% 29.71 in 10.0 mi West 9.2 mph 18.4 mph N/A   Overcast
6:55 PM 19.4 °F 8.6 °F 15.8 °F 86% 29.71 in 10.0 mi WSW 9.2 mph - N/A   Overcast
7:15 PM 19.4 °F 11.5 °F 15.8 °F 86% 29.71 in 7.0 mi WSW 5.8 mph - N/A   Overcast
7:35 PM 19.4 °F 12.8 °F 15.8 °F 86% 29.71 in 2.5 mi WSW 4.6 mph - N/A Snow Light Snow
7:55 PM 21.2 °F 16.4 °F 15.8 °F 80% 29.71 in 3.0 mi WSW 3.5 mph - N/A Snow Light Snow
8:15 PM 21.2 °F 14.9 °F 17.6 °F 86% 29.71 in 1.2 mi WSW 4.6 mph - N/A Snow Light Snow
8:35 PM 21.2 °F 13.6 °F 15.8 °F 80% 29.71 in 4.0 mi WSW 5.8 mph - N/A Snow Light Snow
8:55 PM 21.2 °F 13.6 °F 15.8 °F 80% 29.71 in 4.0 mi WSW 5.8 mph - N/A Snow Light Snow
9:15 PM 21.2 °F 13.6 °F 15.8 °F 80% 29.71 in 2.5 mi WSW 5.8 mph - N/A Snow Light Snow
9:35 PM 21.2 °F 14.9 °F 15.8 °F 80% 29.71 in 5.0 mi SW 4.6 mph - N/A Snow Light Snow
9:55 PM 21.2 °F 11.7 °F 15.8 °F 80% 29.71 in 10.0 mi West 8.1 mph - N/A   Overcast
10:15 PM 21.2 °F 10.1 °F 15.8 °F 80% 29.72 in 10.0 mi West 10.4 mph - N/A   Overcast
10:35 PM 21.2 °F 10.9 °F 15.8 °F 80% 29.72 in 10.0 mi West 9.2 mph - N/A   Overcast
10:55 PM 21.2 °F 11.7 °F 15.8 °F 80% 29.73 in 10.0 mi WSW 8.1 mph - N/A   Mostly Cloudy
11:15 PM 21.2 °F 10.1 °F 15.8 °F 80% 29.73 in 10.0 mi West 10.4 mph - N/A   Overcast
11:35 PM 21.2 °F 9.5 °F 15.8 °F 80% 29.73 in 10.0 mi West 11.5 mph - N/A   Overcast
11:55 PM 19.4 °F 11.5 °F 15.8 °F 86% 29.73 in 10.0 mi WSW 5.8 mph - N/A   Overcast